| time (UTC) | temp F | wind direction | speed MPH | gust MPH | rain 1hr in | rain 24hr in | rain mn in | humidity % | barometer mb |
| 20260505011004 | 70 | 134 | 0.0 | 3.0 | 0.00 | 0.00 | 0.00 | 50 | 1013.2 |
| 20260505010505 | 70 | 145 | 0.0 | 2.0 | 0.00 | 0.00 | 0.00 | 49 | 1013.2 |
| 20260505010005 | 70 | 116 | 0.0 | 2.0 | 0.00 | 0.00 | 0.00 | 49 | 1013.1 |
| 20260505005505 | 71 | 136 | 0.0 | 0.0 | 0.00 | 0.00 | 0.00 | 48 | 1013.2 |
| 20260505005004 | 71 | 136 | 0.0 | 3.0 | 0.00 | 0.00 | 0.00 | 48 | 1013.1 |
| 20260505004503 | 71 | 136 | 0.0 | 3.0 | 0.00 | 0.00 | 0.00 | 47 | 1013.0 |
| 20260505004003 | 72 | 187 | 0.0 | 2.0 | 0.00 | 0.00 | 0.00 | 47 | 1013.0 |
| 20260505003506 | 72 | 163 | 0.0 | 2.0 | 0.00 | 0.00 | 0.00 | 47 | 1013.0 |
| 20260505003004 | 72 | 133 | 0.0 | 3.0 | 0.00 | 0.00 | 0.00 | 47 | 1013.0 |
| 20260505001004 | 73 | 202 | 0.0 | 4.0 | 0.00 | 0.00 | 0.00 | 45 | 1012.9 |
| 20260505000504 | 74 | 150 | 1.0 | 4.0 | 0.00 | 0.00 | 0.00 | 45 | 1012.9 |
| 20260505000014 | 74 | 155 | 1.0 | 4.0 | 0.00 | 0.00 | 0.00 | 45 | 1012.9 |
| 20260504235504 | 74 | 144 | 1.0 | 3.0 | 0.00 | 0.00 | 0.00 | 44 | 1012.9 |
| 20260504235004 | 74 | 125 | 1.0 | 6.0 | 0.00 | 0.00 | 0.00 | 44 | 1012.8 |
| 20260504234507 | 74 | 133 | 3.0 | 6.0 | 0.00 | 0.00 | 0.00 | 43 | 1012.9 |
| 20260504233503 | 75 | 117 | 3.0 | 8.0 | 0.00 | 0.00 | 0.00 | 42 | 1012.8 |
| 20260504233006 | 75 | 124 | 3.0 | 8.0 | 0.00 | 0.00 | 0.00 | 42 | 1012.9 |
| 20260504232004 | 75 | 203 | 2.0 | 8.0 | 0.00 | 0.00 | 0.00 | 42 | 1013.0 |
| 20260504230504 | 75 | 139 | 1.0 | 4.0 | 0.00 | 0.00 | 0.00 | 42 | 1012.9 |
| 20260504230006 | 76 | 220 | 1.0 | 4.0 | 0.00 | 0.00 | 0.00 | 42 | 1012.9 |
| 20260504225007 | 76 | 131 | 1.0 | 6.0 | 0.00 | 0.00 | 0.00 | 41 | 1012.9 |
| 20260504224506 | 76 | 108 | 1.0 | 8.0 | 0.00 | 0.00 | 0.00 | 41 | 1013.0 |
| 20260504224003 | 76 | 154 | 1.0 | 8.0 | 0.00 | 0.00 | 0.00 | 40 | 1013.0 |
| 20260504223503 | 76 | 221 | 1.0 | 9.0 | 0.00 | 0.00 | 0.00 | 41 | 1013.1 |
| 20260504223008 | 76 | 127 | 2.0 | 9.0 | 0.00 | 0.00 | 0.00 | 40 | 1013.1 |
| 20260504222004 | 76 | 121 | 0.0 | 7.0 | 0.00 | 0.00 | 0.00 | 42 | 1013.1 |
| 20260504221506 | 77 | 128 | 2.0 | 7.0 | 0.00 | 0.00 | 0.00 | 40 | 1013.1 |
| 20260504221004 | 77 | 115 | 1.0 | 7.0 | 0.00 | 0.00 | 0.00 | 39 | 1013.1 |
| 20260504220508 | 77 | 129 | 1.0 | 6.0 | 0.00 | 0.00 | 0.00 | 38 | 1013.1 |
| 20260504215004 | 77 | 104 | 1.0 | 7.0 | 0.00 | 0.00 | 0.00 | 41 | 1013.2 |
| 20260504214510 | 77 | 159 | 1.0 | 7.0 | 0.00 | 0.00 | 0.00 | 39 | 1013.1 |
| 20260504214010 | 77 | 206 | 1.0 | 11.0 | 0.00 | 0.00 | 0.00 | 41 | 1013.1 |
| 20260504213504 | 77 | 103 | 1.0 | 12.0 | 0.00 | 0.00 | 0.00 | 42 | 1013.1 |
| 20260504213008 | 77 | 117 | 3.0 | 12.0 | 0.00 | 0.00 | 0.00 | 40 | 1013.2 |
| 20260504212504 | 77 | 81 | 3.0 | 7.0 | 0.00 | 0.00 | 0.00 | 39 | 1013.3 |
| 20260504212003 | 78 | 221 | 3.0 | 10.0 | 0.00 | 0.00 | 0.00 | 38 | 1013.2 |
| 20260504211519 | 78 | 200 | 3.0 | 10.0 | 0.00 | 0.00 | 0.00 | 37 | 1013.2 |
| 20260504211004 | 78 | 152 | 2.0 | 8.0 | 0.00 | 0.00 | 0.00 | 40 | 1013.2 |
| 20260504210504 | 78 | 108 | 3.0 | 8.0 | 0.00 | 0.00 | 0.00 | 40 | 1013.3 |
| 20260504210011 | 78 | 107 | 3.0 | 8.0 | 0.00 | 0.00 | 0.00 | 40 | 1013.3 |
| 20260504205506 | 78 | 127 | 1.0 | 8.0 | 0.00 | 0.00 | 0.00 | 40 | 1013.5 |
| 20260504205005 | 78 | 111 | 4.0 | 8.0 | 0.00 | 0.00 | 0.00 | 39 | 1013.7 |
| 20260504204516 | 79 | 90 | 1.0 | 8.0 | 0.00 | 0.00 | 0.00 | 38 | 1013.7 |
| 20260504204004 | 79 | 216 | 0.0 | 7.0 | 0.00 | 0.00 | 0.00 | 42 | 1013.7 |
| 20260504203508 | 79 | 210 | 1.0 | 7.0 | 0.00 | 0.00 | 0.00 | 41 | 1013.7 |
| 20260504203011 | 78 | 117 | 3.0 | 7.0 | 0.00 | 0.00 | 0.00 | 41 | 1013.7 |
| 20260504202504 | 78 | 200 | 0.0 | 7.0 | 0.00 | 0.00 | 0.00 | 43 | 1013.8 |
| 20260504202004 | 77 | 124 | 2.0 | 11.0 | 0.00 | 0.00 | 0.00 | 42 | 1013.9 |
| 20260504201510 | 78 | 122 | 1.0 | 11.0 | 0.00 | 0.00 | 0.00 | 41 | 1013.9 |
| 20260504201005 | 78 | 135 | 3.0 | 4.0 | 0.00 | 0.00 | 0.00 | 43 | 1014.0 |
| 20260504200505 | 78 | 195 | 1.0 | 8.0 | 0.00 | 0.00 | 0.00 | 43 | 1014.0 |
| 20260504200008 | 78 | 158 | 2.0 | 8.0 | 0.00 | 0.00 | 0.00 | 43 | 1014.1 |
| 20260504195504 | 79 | 224 | 2.0 | 6.0 | 0.00 | 0.00 | 0.00 | 42 | 1014.2 |
| 20260504195004 | 79 | 241 | 1.0 | 7.0 | 0.00 | 0.00 | 0.00 | 41 | 1014.3 |
| 20260504194511 | 79 | 117 | 3.0 | 7.0 | 0.00 | 0.00 | 0.00 | 43 | 1014.3 |
| 20260504194004 | 79 | 135 | 3.0 | 7.0 | 0.00 | 0.00 | 0.00 | 44 | 1014.3 |
| 20260504193504 | 79 | 97 | 1.0 | 9.0 | 0.00 | 0.00 | 0.00 | 44 | 1014.3 |
| 20260504193019 | 78 | 127 | 1.0 | 9.0 | 0.00 | 0.00 | 0.00 | 43 | 1014.4 |
| 20260504192504 | 78 | 115 | 0.0 | 5.0 | 0.00 | 0.00 | 0.00 | 44 | 1014.4 |
| 20260504192006 | 78 | 113 | 2.0 | 5.0 | 0.00 | 0.00 | 0.00 | 43 | 1014.4 |
| 20260504191508 | 78 | 134 | 0.0 | 7.0 | 0.00 | 0.00 | 0.00 | 46 | 1014.6 |
| 20260504191002 | 77 | 83 | 3.0 | 7.0 | 0.00 | 0.00 | 0.00 | 45 | 1014.7 |
| 20260504190504 | 78 | 148 | 1.0 | 6.0 | 0.00 | 0.00 | 0.00 | 46 | 1014.8 |
| 20260504190013 | 77 | 127 | 0.0 | 4.0 | 0.00 | 0.00 | 0.00 | 48 | 1014.8 |
| 20260504185503 | 77 | 152 | 2.0 | 5.0 | 0.00 | 0.00 | 0.00 | 45 | 1014.9 |
| 20260504185006 | 77 | 103 | 1.0 | 5.0 | 0.00 | 0.00 | 0.00 | 46 | 1014.9 |
| 20260504184510 | 77 | 127 | 1.0 | 7.0 | 0.00 | 0.00 | 0.00 | 47 | 1015.0 |
| 20260504184003 | 77 | 121 | 3.0 | 8.0 | 0.00 | 0.00 | 0.00 | 45 | 1015.1 |
| 20260504183504 | 77 | 100 | 3.0 | 8.0 | 0.00 | 0.00 | 0.00 | 45 | 1015.2 |
| 20260504183009 | 77 | 304 | 1.0 | 7.0 | 0.00 | 0.00 | 0.00 | 47 | 1015.2 |
| 20260504182504 | 77 | 151 | 3.0 | 6.0 | 0.00 | 0.00 | 0.00 | 46 | 1015.4 |
| 20260504182005 | 77 | 250 | 0.0 | 6.0 | 0.00 | 0.00 | 0.00 | 46 | 1015.4 |
| 20260504181520 | 76 | 96 | 2.0 | 6.0 | 0.00 | 0.00 | 0.00 | 46 | 1015.4 |
| 20260504181004 | 77 | 146 | 1.0 | 6.0 | 0.00 | 0.00 | 0.00 | 46 | 1015.5 |
| 20260504180506 | 76 | 138 | 2.0 | 6.0 | 0.00 | 0.00 | 0.00 | 47 | 1015.5 |
| 20260504180014 | 77 | 109 | 3.0 | 6.0 | 0.00 | 0.00 | 0.00 | 45 | 1015.5 |
| 20260504175502 | 76 | 106 | 2.0 | 6.0 | 0.00 | 0.00 | 0.00 | 47 | 1015.5 |
| 20260504175004 | 76 | 72 | 2.0 | 6.0 | 0.00 | 0.00 | 0.00 | 49 | 1015.6 |
| 20260504174512 | 76 | 112 | 1.0 | 6.0 | 0.00 | 0.00 | 0.00 | 46 | 1015.6 |
| 20260504174003 | 77 | 73 | 2.0 | 6.0 | 0.00 | 0.00 | 0.00 | 46 | 1015.7 |
| 20260504173503 | 77 | 115 | 0.0 | 4.0 | 0.00 | 0.00 | 0.00 | 48 | 1015.7 |
| 20260504173013 | 76 | 122 | 0.0 | 7.0 | 0.00 | 0.00 | 0.00 | 47 | 1015.8 |
| 20260504172503 | 75 | 37 | 0.0 | 7.0 | 0.00 | 0.00 | 0.00 | 48 | 1015.9 |
| 20260504172004 | 76 | 84 | 2.0 | 6.0 | 0.00 | 0.00 | 0.00 | 48 | 1016.0 |
| 20260504171510 | 75 | 231 | 0.0 | 6.0 | 0.00 | 0.00 | 0.00 | 52 | 1016.1 |
| 20260504171006 | 74 | 247 | 2.0 | 6.0 | 0.00 | 0.00 | 0.00 | 50 | 1016.2 |
| 20260504170505 | 75 | 94 | 1.0 | 5.0 | 0.00 | 0.00 | 0.00 | 50 | 1016.3 |
| 20260504150507 | 68 | 235 | 0.0 | 3.0 | 0.00 | 0.00 | 0.00 | 56 | 1017.3 |
| 20260504141007 | 64 | 156 | 2.0 | 6.0 | 0.00 | 0.00 | 0.00 | 60 | 1017.6 |
| 20260504140508 | 63 | 134 | 0.0 | 4.0 | 0.00 | 0.00 | 0.00 | 64 | 1017.7 |
| 20260504130506 | 58 | 103 | 1.0 | 2.0 | 0.00 | 0.00 | 0.00 | 68 | 1018.1 |
| 20260504100507 | 48 | 295 | 0.0 | 0.0 | 0.00 | 0.00 | 0.00 | 88 | 1016.9 |
| 20260504082008 | 48 | 295 | 0.0 | 0.0 | 0.00 | 0.00 | 0.00 | 88 | 1016.8 |
| 20260504081534 | 48 | 295 | 0.0 | 0.0 | 0.00 | 0.00 | 0.00 | 88 | 1016.8 |
| 20260504081008 | 48 | 295 | 0.0 | 0.0 | 0.00 | 0.00 | 0.00 | 88 | 1016.9 |
| 20260504080509 | 48 | 295 | 0.0 | 0.0 | 0.00 | 0.00 | 0.00 | 88 | 1016.9 |
| 20260504050507 | 50 | 295 | 0.0 | 0.0 | 0.00 | 0.00 | 0.00 | 85 | 1018.2 |
| 20260504050024 | 50 | 295 | 0.0 | 0.0 | 0.00 | 0.00 | 0.00 | 84 | 1018.2 |
| 20260504045503 | 50 | 295 | 0.0 | 0.0 | 0.00 | 0.00 | 0.00 | 84 | 1018.2 |
| 20260504045004 | 51 | 295 | 0.0 | 0.0 | 0.00 | 0.00 | 0.00 | 83 | 1018.1 |
| 20260504044522 | 51 | 295 | 0.0 | 0.0 | 0.00 | 0.00 | 0.00 | 83 | 1018.1 |
| 20260504043504 | 51 | 295 | 0.0 | 0.0 | 0.00 | 0.00 | 0.00 | 81 | 1018.1 |
| 20260504043017 | 51 | 295 | 0.0 | 0.0 | 0.00 | 0.00 | 0.00 | 81 | 1018.2 |
| 20260504042509 | 52 | 295 | 0.0 | 0.0 | 0.00 | 0.00 | 0.00 | 80 | 1018.2 |
| 20260504042002 | 52 | 295 | 0.0 | 0.0 | 0.00 | 0.00 | 0.00 | 80 | 1018.1 |
| 20260504041512 | 52 | 295 | 0.0 | 0.0 | 0.00 | 0.00 | 0.00 | 79 | 1018.0 |
| 20260504041006 | 52 | 295 | 0.0 | 0.0 | 0.00 | 0.00 | 0.00 | 79 | 1017.9 |
| 20260504040507 | 52 | 295 | 0.0 | 0.0 | 0.00 | 0.00 | 0.00 | 79 | 1017.9 |
| 20260504040010 | 52 | 295 | 0.0 | 0.0 | 0.00 | 0.00 | 0.00 | 78 | 1018.0 |
| 20260504035505 | 51 | 295 | 0.0 | 0.0 | 0.00 | 0.00 | 0.00 | 79 | 1018.1 |
| 20260504035007 | 51 | 295 | 0.0 | 0.0 | 0.00 | 0.00 | 0.00 | 79 | 1018.2 |
| 20260504034512 | 51 | 295 | 0.0 | 0.0 | 0.00 | 0.00 | 0.00 | 79 | 1018.3 |
| 20260504034004 | 51 | 295 | 0.0 | 0.0 | 0.00 | 0.00 | 0.00 | 79 | 1018.2 |
| 20260504033507 | 51 | 295 | 0.0 | 0.0 | 0.00 | 0.00 | 0.00 | 78 | 1018.3 |
| 20260504033044 | 51 | 295 | 0.0 | 0.0 | 0.00 | 0.00 | 0.00 | 78 | 1018.4 |
| 20260504032504 | 51 | 295 | 0.0 | 0.0 | 0.00 | 0.00 | 0.00 | 78 | 1018.5 |
| 20260504032005 | 52 | 295 | 0.0 | 0.0 | 0.00 | 0.00 | 0.00 | 77 | 1018.5 |
| 20260504031527 | 52 | 295 | 0.0 | 0.0 | 0.00 | 0.00 | 0.00 | 76 | 1018.6 |
| 20260504031005 | 52 | 295 | 0.0 | 0.0 | 0.00 | 0.00 | 0.00 | 77 | 1018.6 |
| 20260504030503 | 52 | 295 | 0.0 | 0.0 | 0.00 | 0.00 | 0.00 | 77 | 1018.7 |
| 20260504030022 | 52 | 295 | 0.0 | 0.0 | 0.00 | 0.00 | 0.00 | 75 | 1018.8 |
| 20260504025512 | 52 | 295 | 0.0 | 0.0 | 0.00 | 0.00 | 0.00 | 74 | 1018.8 |
| 20260504025004 | 53 | 295 | 0.0 | 0.0 | 0.00 | 0.00 | 0.00 | 74 | 1018.7 |
| 20260504024535 | 53 | 295 | 0.0 | 0.0 | 0.00 | 0.00 | 0.00 | 73 | 1018.8 |
| 20260504024008 | 53 | 295 | 0.0 | 0.0 | 0.00 | 0.00 | 0.00 | 72 | 1018.7 |
| 20260504023508 | 53 | 295 | 0.0 | 0.0 | 0.00 | 0.00 | 0.00 | 73 | 1018.7 |
| 20260504023011 | 53 | 295 | 0.0 | 0.0 | 0.00 | 0.00 | 0.00 | 72 | 1018.7 |
| 20260504022504 | 53 | 295 | 0.0 | 0.0 | 0.00 | 0.00 | 0.00 | 70 | 1018.7 |
| 20260504022014 | 54 | 295 | 0.0 | 0.0 | 0.00 | 0.00 | 0.00 | 69 | 1018.6 |
| 20260504021510 | 54 | 295 | 0.0 | 0.0 | 0.00 | 0.00 | 0.00 | 70 | 1018.6 |
| 20260504021005 | 54 | 295 | 0.0 | 0.0 | 0.00 | 0.00 | 0.00 | 68 | 1018.5 |
| 20260504020505 | 54 | 295 | 0.0 | 0.0 | 0.00 | 0.00 | 0.00 | 67 | 1018.4 |
| 20260504020028 | 55 | 295 | 0.0 | 0.0 | 0.00 | 0.00 | 0.00 | 68 | 1018.4 |
| 20260504015504 | 55 | 295 | 0.0 | 0.0 | 0.00 | 0.00 | 0.00 | 67 | 1018.3 |
| 20260504015007 | 55 | 295 | 0.0 | 0.0 | 0.00 | 0.00 | 0.00 | 67 | 1018.3 |
| 20260504014524 | 56 | 295 | 0.0 | 0.0 | 0.00 | 0.00 | 0.00 | 64 | 1018.3 |
| 20260504014005 | 56 | 295 | 0.0 | 0.0 | 0.00 | 0.00 | 0.00 | 64 | 1018.2 |
| 20260504013506 | 56 | 295 | 0.0 | 0.0 | 0.00 | 0.00 | 0.00 | 63 | 1018.0 |
| 20260504013023 | 56 | 295 | 0.0 | 0.0 | 0.00 | 0.00 | 0.00 | 62 | 1017.9 |
| 20260504012507 | 57 | 295 | 0.0 | 0.0 | 0.00 | 0.00 | 0.00 | 61 | 1017.8 |
| 20260504012004 | 57 | 295 | 0.0 | 0.0 | 0.00 | 0.00 | 0.00 | 62 | 1017.7 |
| 20260504011518 | 57 | 295 | 0.0 | 0.0 | 0.00 | 0.00 | 0.00 | 60 | 1017.8 |